owner,sensor,date,latitude,longitude,vertical_datum,sea_water_temperature,qcFlag 
TCOON,ioos:station:TCOON:170:1,2017-01-01T00:30:00Z,27.2970,-97.4049,0.0,18.4,2 
TCOON,ioos:station:TCOON:170:1,2017-01-01T02:30:00Z,27.2970,-97.4049,0.0,18.2,2 
TCOON,ioos:station:TCOON:170:1,2017-01-01T03:30:00Z,27.2970,-97.4049,0.0,18.1,2 
TCOON,ioos:station:TCOON:170:1,2017-01-01T05:30:00Z,27.2970,-97.4049,0.0,18.0,2 
TCOON,ioos:station:TCOON:170:1,2017-01-01T06:30:00Z,27.2970,-97.4049,0.0,18.0,2 
TCOON,ioos:station:TCOON:170:1,2017-01-01T07:30:00Z,27.2970,-97.4049,0.0,18.0,2 
TCOON,ioos:station:TCOON:170:1,2017-01-01T08:30:00Z,27.2970,-97.4049,0.0,18.0,2 
TCOON,ioos:station:TCOON:170:1,2017-01-01T09:30:00Z,27.2970,-97.4049,0.0,17.9,2 
TCOON,ioos:station:TCOON:170:1,2017-01-01T10:30:00Z,27.2970,-97.4049,0.0,17.9,2 
TCOON,ioos:station:TCOON:170:1,2017-01-01T11:30:00Z,27.2970,-97.4049,0.0,17.9,2 
TCOON,ioos:station:TCOON:170:1,2017-01-01T14:30:00Z,27.2970,-97.4049,0.0,17.8,2 
TCOON,ioos:station:TCOON:170:1,2017-01-01T15:30:00Z,27.2970,-97.4049,0.0,17.9,2 
TCOON,ioos:station:TCOON:170:1,2017-01-01T16:30:00Z,27.2970,-97.4049,0.0,18.1,2 
TCOON,ioos:station:TCOON:170:1,2017-01-01T17:30:00Z,27.2970,-97.4049,0.0,18.6,2 
TCOON,ioos:station:TCOON:170:1,2017-01-01T18:30:00Z,27.2970,-97.4049,0.0,18.7,2 
TCOON,ioos:station:TCOON:170:1,2017-01-01T19:30:00Z,27.2970,-97.4049,0.0,18.5,2 
TCOON,ioos:station:TCOON:170:1,2017-01-01T20:30:00Z,27.2970,-97.4049,0.0,18.8,2 
TCOON,ioos:station:TCOON:170:1,2017-01-01T21:30:00Z,27.2970,-97.4049,0.0,19.1,2 
TCOON,ioos:station:TCOON:170:1,2017-01-01T22:30:00Z,27.2970,-97.4049,0.0,19.0,2 
TCOON,ioos:station:TCOON:170:1,2017-01-02T00:30:00Z,27.2970,-97.4049,0.0,19.0,2 
TCOON,ioos:station:TCOON:170:1,2017-01-02T01:30:00Z,27.2970,-97.4049,0.0,18.8,2 
TCOON,ioos:station:TCOON:170:1,2017-01-02T02:30:00Z,27.2970,-97.4049,0.0,18.7,2 
TCOON,ioos:station:TCOON:170:1,2017-01-02T03:30:00Z,27.2970,-97.4049,0.0,18.7,2 
TCOON,ioos:station:TCOON:170:1,2017-01-02T04:30:00Z,27.2970,-97.4049,0.0,18.7,2 
TCOON,ioos:station:TCOON:170:1,2017-01-02T05:30:00Z,27.2970,-97.4049,0.0,18.8,2 
TCOON,ioos:station:TCOON:170:1,2017-01-02T06:30:00Z,27.2970,-97.4049,0.0,18.8,2 
TCOON,ioos:station:TCOON:170:1,2017-01-02T07:30:00Z,27.2970,-97.4049,0.0,18.8,2 
TCOON,ioos:station:TCOON:170:1,2017-01-02T08:30:00Z,27.2970,-97.4049,0.0,18.9,2 
TCOON,ioos:station:TCOON:170:1,2017-01-02T09:30:00Z,27.2970,-97.4049,0.0,18.9,2 
TCOON,ioos:station:TCOON:170:1,2017-01-02T11:30:00Z,27.2970,-97.4049,0.0,19.0,2 
TCOON,ioos:station:TCOON:170:1,2017-01-02T12:30:00Z,27.2970,-97.4049,0.0,19.0,2 
TCOON,ioos:station:TCOON:170:1,2017-01-02T13:30:00Z,27.2970,-97.4049,0.0,18.9,2 
TCOON,ioos:station:TCOON:170:1,2017-01-02T14:30:00Z,27.2970,-97.4049,0.0,18.9,2 
TCOON,ioos:station:TCOON:170:1,2017-01-02T15:30:00Z,27.2970,-97.4049,0.0,19.1,2 
TCOON,ioos:station:TCOON:170:1,2017-01-02T16:30:00Z,27.2970,-97.4049,0.0,19.6,2 
TCOON,ioos:station:TCOON:170:1,2017-01-02T17:30:00Z,27.2970,-97.4049,0.0,19.9,2 
TCOON,ioos:station:TCOON:170:1,2017-01-02T22:30:00Z,27.2970,-97.4049,0.0,21.6,2 
TCOON,ioos:station:TCOON:170:1,2017-01-03T05:30:00Z,27.2970,-97.4049,0.0,20.3,2 
TCOON,ioos:station:TCOON:170:1,2017-01-03T06:30:00Z,27.2970,-97.4049,0.0,20.0,2 
TCOON,ioos:station:TCOON:170:1,2017-01-03T17:30:00Z,27.2970,-97.4049,0.0,19.6,2 
TCOON,ioos:station:TCOON:170:1,2017-01-03T18:30:00Z,27.2970,-97.4049,0.0,20.0,2 
TCOON,ioos:station:TCOON:170:1,2017-01-03T22:30:00Z,27.2970,-97.4049,0.0,21.5,2 
TCOON,ioos:station:TCOON:170:1,2017-01-03T23:30:00Z,27.2970,-97.4049,0.0,20.9,2 
TCOON,ioos:station:TCOON:170:1,2017-01-04T00:30:00Z,27.2970,-97.4049,0.0,21.0,2 
TCOON,ioos:station:TCOON:170:1,2017-01-04T07:30:00Z,27.2970,-97.4049,0.0,19.9,2 
TCOON,ioos:station:TCOON:170:1,2017-01-04T08:30:00Z,27.2970,-97.4049,0.0,19.7,2 
TCOON,ioos:station:TCOON:170:1,2017-01-04T09:30:00Z,27.2970,-97.4049,0.0,19.0,2 
TCOON,ioos:station:TCOON:170:1,2017-01-04T10:30:00Z,27.2970,-97.4049,0.0,18.5,2 
TCOON,ioos:station:TCOON:170:1,2017-01-04T11:30:00Z,27.2970,-97.4049,0.0,18.1,2 
TCOON,ioos:station:TCOON:170:1,2017-01-04T12:30:00Z,27.2970,-97.4049,0.0,18.0,2 
TCOON,ioos:station:TCOON:170:1,2017-01-04T13:30:00Z,27.2970,-97.4049,0.0,17.7,2 
TCOON,ioos:station:TCOON:170:1,2017-01-04T14:30:00Z,27.2970,-97.4049,0.0,17.7,2 
TCOON,ioos:station:TCOON:170:1,2017-01-04T15:30:00Z,27.2970,-97.4049,0.0,17.5,2 
TCOON,ioos:station:TCOON:170:1,2017-01-04T16:30:00Z,27.2970,-97.4049,0.0,17.6,2 
TCOON,ioos:station:TCOON:170:1,2017-01-04T17:30:00Z,27.2970,-97.4049,0.0,18.2,2 
TCOON,ioos:station:TCOON:170:1,2017-01-04T18:30:00Z,27.2970,-97.4049,0.0,18.6,2 
TCOON,ioos:station:TCOON:170:1,2017-01-04T19:30:00Z,27.2970,-97.4049,0.0,18.9,2 
TCOON,ioos:station:TCOON:170:1,2017-01-04T20:30:00Z,27.2970,-97.4049,0.0,18.9,2 
TCOON,ioos:station:TCOON:170:1,2017-01-04T21:30:00Z,27.2970,-97.4049,0.0,18.9,2 
TCOON,ioos:station:TCOON:170:1,2017-01-04T22:30:00Z,27.2970,-97.4049,0.0,18.7,2 
TCOON,ioos:station:TCOON:170:1,2017-01-04T23:30:00Z,27.2970,-97.4049,0.0,18.5,2 
TCOON,ioos:station:TCOON:170:1,2017-01-05T00:30:00Z,27.2970,-97.4049,0.0,18.2,2 
TCOON,ioos:station:TCOON:170:1,2017-01-05T01:30:00Z,27.2970,-97.4049,0.0,18.1,2 
TCOON,ioos:station:TCOON:170:1,2017-01-05T02:30:00Z,27.2970,-97.4049,0.0,17.9,2 
TCOON,ioos:station:TCOON:170:1,2017-01-05T03:30:00Z,27.2970,-97.4049,0.0,17.8,2 
TCOON,ioos:station:TCOON:170:1,2017-01-05T04:30:00Z,27.2970,-97.4049,0.0,17.7,2 
TCOON,ioos:station:TCOON:170:1,2017-01-05T05:30:00Z,27.2970,-97.4049,0.0,17.4,2 
TCOON,ioos:station:TCOON:170:1,2017-01-05T06:30:00Z,27.2970,-97.4049,0.0,17.1,2 
TCOON,ioos:station:TCOON:170:1,2017-01-05T07:30:00Z,27.2970,-97.4049,0.0,17.0,2 
TCOON,ioos:station:TCOON:170:1,2017-01-05T08:30:00Z,27.2970,-97.4049,0.0,16.9,2 
TCOON,ioos:station:TCOON:170:1,2017-01-05T11:30:00Z,27.2970,-97.4049,0.0,16.8,2 
TCOON,ioos:station:TCOON:170:1,2017-01-05T12:30:00Z,27.2970,-97.4049,0.0,16.7,2 
TCOON,ioos:station:TCOON:170:1,2017-01-05T13:30:00Z,27.2970,-97.4049,0.0,16.5,2 
TCOON,ioos:station:TCOON:170:1,2017-01-05T14:30:00Z,27.2970,-97.4049,0.0,16.5,2 
TCOON,ioos:station:TCOON:170:1,2017-01-05T15:30:00Z,27.2970,-97.4049,0.0,16.9,2 
TCOON,ioos:station:TCOON:170:1,2017-01-05T16:30:00Z,27.2970,-97.4049,0.0,17.0,2 
TCOON,ioos:station:TCOON:170:1,2017-01-05T17:30:00Z,27.2970,-97.4049,0.0,17.0,2 
TCOON,ioos:station:TCOON:170:1,2017-01-05T19:30:00Z,27.2970,-97.4049,0.0,17.5,2 
TCOON,ioos:station:TCOON:170:1,2017-01-05T21:30:00Z,27.2970,-97.4049,0.0,17.9,2 
TCOON,ioos:station:TCOON:170:1,2017-01-05T22:30:00Z,27.2970,-97.4049,0.0,18.1,2 
TCOON,ioos:station:TCOON:170:1,2017-01-05T23:30:00Z,27.2970,-97.4049,0.0,18.2,2 
TCOON,ioos:station:TCOON:170:1,2017-01-06T00:30:00Z,27.2970,-97.4049,0.0,18.1,2 
TCOON,ioos:station:TCOON:170:1,2017-01-06T01:30:00Z,27.2970,-97.4049,0.0,17.9,2 
TCOON,ioos:station:TCOON:170:1,2017-01-06T02:30:00Z,27.2970,-97.4049,0.0,17.9,2 
TCOON,ioos:station:TCOON:170:1,2017-01-06T03:30:00Z,27.2970,-97.4049,0.0,17.8,2 
TCOON,ioos:station:TCOON:170:1,2017-01-06T04:30:00Z,27.2970,-97.4049,0.0,17.8,2 
TCOON,ioos:station:TCOON:170:1,2017-01-06T05:30:00Z,27.2970,-97.4049,0.0,17.6,2 
TCOON,ioos:station:TCOON:170:1,2017-01-06T06:30:00Z,27.2970,-97.4049,0.0,17.3,2 
TCOON,ioos:station:TCOON:170:1,2017-01-06T07:30:00Z,27.2970,-97.4049,0.0,16.9,2 
TCOON,ioos:station:TCOON:170:1,2017-01-06T08:30:00Z,27.2970,-97.4049,0.0,16.5,2 
TCOON,ioos:station:TCOON:170:1,2017-01-06T09:30:00Z,27.2970,-97.4049,0.0,16.2,2 
TCOON,ioos:station:TCOON:170:1,2017-01-06T10:30:00Z,27.2970,-97.4049,0.0,15.8,2 
TCOON,ioos:station:TCOON:170:1,2017-01-06T11:30:00Z,27.2970,-97.4049,0.0,15.5,2 
TCOON,ioos:station:TCOON:170:1,2017-01-06T12:30:00Z,27.2970,-97.4049,0.0,15.5,2 
TCOON,ioos:station:TCOON:170:1,2017-01-06T13:30:00Z,27.2970,-97.4049,0.0,15.1,2 
TCOON,ioos:station:TCOON:170:1,2017-01-06T14:30:00Z,27.2970,-97.4049,0.0,14.6,2 
TCOON,ioos:station:TCOON:170:1,2017-01-06T15:30:00Z,27.2970,-97.4049,0.0,14.3,2 
TCOON,ioos:station:TCOON:170:1,2017-01-06T16:30:00Z,27.2970,-97.4049,0.0,14.0,2 
TCOON,ioos:station:TCOON:170:1,2017-01-06T17:30:00Z,27.2970,-97.4049,0.0,13.6,2 
TCOON,ioos:station:TCOON:170:1,2017-01-06T18:30:00Z,27.2970,-97.4049,0.0,13.4,2 
TCOON,ioos:station:TCOON:170:1,2017-01-06T19:30:00Z,27.2970,-97.4049,0.0,13.3,2 
TCOON,ioos:station:TCOON:170:1,2017-01-06T20:30:00Z,27.2970,-97.4049,0.0,13.3,2 
TCOON,ioos:station:TCOON:170:1,2017-01-06T21:30:00Z,27.2970,-97.4049,0.0,12.9,2 
TCOON,ioos:station:TCOON:170:1,2017-01-06T22:30:00Z,27.2970,-97.4049,0.0,12.6,2 
TCOON,ioos:station:TCOON:170:1,2017-01-07T00:30:00Z,27.2970,-97.4049,0.0,12.1,2 
TCOON,ioos:station:TCOON:170:1,2017-01-07T01:30:00Z,27.2970,-97.4049,0.0,11.9,2 
TCOON,ioos:station:TCOON:170:1,2017-01-07T02:30:00Z,27.2970,-97.4049,0.0,11.5,2 
TCOON,ioos:station:TCOON:170:1,2017-01-07T03:30:00Z,27.2970,-97.4049,0.0,11.4,2 
TCOON,ioos:station:TCOON:170:1,2017-01-07T04:30:00Z,27.2970,-97.4049,0.0,10.9,2 
TCOON,ioos:station:TCOON:170:1,2017-01-07T05:30:00Z,27.2970,-97.4049,0.0,10.8,2 
TCOON,ioos:station:TCOON:170:1,2017-01-07T06:30:00Z,27.2970,-97.4049,0.0,10.6,2 
TCOON,ioos:station:TCOON:170:1,2017-01-07T07:30:00Z,27.2970,-97.4049,0.0,10.0,2 
TCOON,ioos:station:TCOON:170:1,2017-01-07T08:30:00Z,27.2970,-97.4049,0.0,9.8,2 
TCOON,ioos:station:TCOON:170:1,2017-01-07T09:30:00Z,27.2970,-97.4049,0.0,9.4,2 
TCOON,ioos:station:TCOON:170:1,2017-01-07T10:30:00Z,27.2970,-97.4049,0.0,9.0,2 
TCOON,ioos:station:TCOON:170:1,2017-01-07T11:30:00Z,27.2970,-97.4049,0.0,8.6,2 
TCOON,ioos:station:TCOON:170:1,2017-01-07T12:30:00Z,27.2970,-97.4049,0.0,8.1,2 
TCOON,ioos:station:TCOON:170:1,2017-01-07T13:30:00Z,27.2970,-97.4049,0.0,7.9,2 
TCOON,ioos:station:TCOON:170:1,2017-01-07T14:30:00Z,27.2970,-97.4049,0.0,7.9,2 
TCOON,ioos:station:TCOON:170:1,2017-01-07T15:30:00Z,27.2970,-97.4049,0.0,7.6,2 
TCOON,ioos:station:TCOON:170:1,2017-01-07T16:30:00Z,27.2970,-97.4049,0.0,7.8,2 
TCOON,ioos:station:TCOON:170:1,2017-01-07T17:30:00Z,27.2970,-97.4049,0.0,8.0,2 
TCOON,ioos:station:TCOON:170:1,2017-01-07T18:30:00Z,27.2970,-97.4049,0.0,8.4,2 
TCOON,ioos:station:TCOON:170:1,2017-01-07T19:30:00Z,27.2970,-97.4049,0.0,8.9,2 
TCOON,ioos:station:TCOON:170:1,2017-01-07T20:30:00Z,27.2970,-97.4049,0.0,9.4,2 
TCOON,ioos:station:TCOON:170:1,2017-01-07T21:30:00Z,27.2970,-97.4049,0.0,9.7,2 
TCOON,ioos:station:TCOON:170:1,2017-01-07T22:30:00Z,27.2970,-97.4049,0.0,9.9,2 
TCOON,ioos:station:TCOON:170:1,2017-01-08T01:30:00Z,27.2970,-97.4049,0.0,9.1,2 
TCOON,ioos:station:TCOON:170:1,2017-01-08T14:00:00Z,27.2970,-97.4049,0.0,6.5,2 
TCOON,ioos:station:TCOON:170:1,2017-01-08T14:30:00Z,27.2970,-97.4049,0.0,6.4,2 
TCOON,ioos:station:TCOON:170:1,2017-01-08T15:30:00Z,27.2970,-97.4049,0.0,6.3,2 
TCOON,ioos:station:TCOON:170:1,2017-01-08T16:30:00Z,27.2970,-97.4049,0.0,7.3,2 
TCOON,ioos:station:TCOON:170:1,2017-01-08T17:30:00Z,27.2970,-97.4049,0.0,8.0,2 
TCOON,ioos:station:TCOON:170:1,2017-01-08T18:30:00Z,27.2970,-97.4049,0.0,8.4,2 
TCOON,ioos:station:TCOON:170:1,2017-01-08T19:30:00Z,27.2970,-97.4049,0.0,8.9,2 
TCOON,ioos:station:TCOON:170:1,2017-01-08T20:30:00Z,27.2970,-97.4049,0.0,9.3,2 
TCOON,ioos:station:TCOON:170:1,2017-01-08T21:30:00Z,27.2970,-97.4049,0.0,9.5,2 
TCOON,ioos:station:TCOON:170:1,2017-01-08T22:30:00Z,27.2970,-97.4049,0.0,9.9,2 
TCOON,ioos:station:TCOON:170:1,2017-01-08T23:30:00Z,27.2970,-97.4049,0.0,9.9,2 
TCOON,ioos:station:TCOON:170:1,2017-01-09T01:30:00Z,27.2970,-97.4049,0.0,10.0,2 
TCOON,ioos:station:TCOON:170:1,2017-01-09T02:30:00Z,27.2970,-97.4049,0.0,9.7,2 
TCOON,ioos:station:TCOON:170:1,2017-01-09T03:30:00Z,27.2970,-97.4049,0.0,10.0,2 
TCOON,ioos:station:TCOON:170:1,2017-01-09T04:30:00Z,27.2970,-97.4049,0.0,9.9,2 
TCOON,ioos:station:TCOON:170:1,2017-01-09T05:30:00Z,27.2970,-97.4049,0.0,9.8,2 
TCOON,ioos:station:TCOON:170:1,2017-01-09T06:30:00Z,27.2970,-97.4049,0.0,9.5,2 
TCOON,ioos:station:TCOON:170:1,2017-01-09T07:30:00Z,27.2970,-97.4049,0.0,9.6,2 
TCOON,ioos:station:TCOON:170:1,2017-01-09T08:30:00Z,27.2970,-97.4049,0.0,9.7,2 
TCOON,ioos:station:TCOON:170:1,2017-01-09T10:30:00Z,27.2970,-97.4049,0.0,9.8,2 
TCOON,ioos:station:TCOON:170:1,2017-01-09T13:30:00Z,27.2970,-97.4049,0.0,9.9,2 
TCOON,ioos:station:TCOON:170:1,2017-01-09T14:30:00Z,27.2970,-97.4049,0.0,9.9,2 
TCOON,ioos:station:TCOON:170:1,2017-01-09T16:30:00Z,27.2970,-97.4049,0.0,10.4,2 
TCOON,ioos:station:TCOON:170:1,2017-01-09T17:30:00Z,27.2970,-97.4049,0.0,10.6,2 
TCOON,ioos:station:TCOON:170:1,2017-01-09T18:30:00Z,27.2970,-97.4049,0.0,11.5,2 
TCOON,ioos:station:TCOON:170:1,2017-01-09T19:30:00Z,27.2970,-97.4049,0.0,12.0,2 
TCOON,ioos:station:TCOON:170:1,2017-01-09T20:30:00Z,27.2970,-97.4049,0.0,12.7,2 
TCOON,ioos:station:TCOON:170:1,2017-01-09T21:30:00Z,27.2970,-97.4049,0.0,12.0,2 
TCOON,ioos:station:TCOON:170:1,2017-01-09T22:30:00Z,27.2970,-97.4049,0.0,13.0,2 
TCOON,ioos:station:TCOON:170:1,2017-01-09T23:30:00Z,27.2970,-97.4049,0.0,12.9,2 
TCOON,ioos:station:TCOON:170:1,2017-01-10T00:30:00Z,27.2970,-97.4049,0.0,12.8,2 
TCOON,ioos:station:TCOON:170:1,2017-01-10T01:30:00Z,27.2970,-97.4049,0.0,12.8,2 
TCOON,ioos:station:TCOON:170:1,2017-01-10T06:30:00Z,27.2970,-97.4049,0.0,12.6,2 
TCOON,ioos:station:TCOON:170:1,2017-01-10T07:30:00Z,27.2970,-97.4049,0.0,12.6,2 
TCOON,ioos:station:TCOON:170:1,2017-01-10T08:30:00Z,27.2970,-97.4049,0.0,12.5,2 
TCOON,ioos:station:TCOON:170:1,2017-01-10T09:30:00Z,27.2970,-97.4049,0.0,12.5,2 
TCOON,ioos:station:TCOON:170:1,2017-01-10T10:30:00Z,27.2970,-97.4049,0.0,12.4,2 
TCOON,ioos:station:TCOON:170:1,2017-01-10T14:30:00Z,27.2970,-97.4049,0.0,12.5,2 
TCOON,ioos:station:TCOON:170:1,2017-01-10T15:30:00Z,27.2970,-97.4049,0.0,12.7,2 
TCOON,ioos:station:TCOON:170:1,2017-01-10T16:30:00Z,27.2970,-97.4049,0.0,13.2,2 
TCOON,ioos:station:TCOON:170:1,2017-01-10T17:30:00Z,27.2970,-97.4049,0.0,13.9,2 
TCOON,ioos:station:TCOON:170:1,2017-01-10T18:30:00Z,27.2970,-97.4049,0.0,14.6,2 
TCOON,ioos:station:TCOON:170:1,2017-01-10T19:30:00Z,27.2970,-97.4049,0.0,16.0,2 
TCOON,ioos:station:TCOON:170:1,2017-01-10T20:30:00Z,27.2970,-97.4049,0.0,16.0,2 
TCOON,ioos:station:TCOON:170:1,2017-01-10T21:30:00Z,27.2970,-97.4049,0.0,15.9,2 
TCOON,ioos:station:TCOON:170:1,2017-01-10T22:30:00Z,27.2970,-97.4049,0.0,15.7,2 
TCOON,ioos:station:TCOON:170:1,2017-01-10T23:30:00Z,27.2970,-97.4049,0.0,15.5,2 
TCOON,ioos:station:TCOON:170:1,2017-01-11T00:30:00Z,27.2970,-97.4049,0.0,15.3,2 
TCOON,ioos:station:TCOON:170:1,2017-01-11T01:30:00Z,27.2970,-97.4049,0.0,15.0,2 
TCOON,ioos:station:TCOON:170:1,2017-01-11T02:30:00Z,27.2970,-97.4049,0.0,14.6,2 
TCOON,ioos:station:TCOON:170:1,2017-01-11T03:30:00Z,27.2970,-97.4049,0.0,14.6,2 
TCOON,ioos:station:TCOON:170:1,2017-01-11T04:30:00Z,27.2970,-97.4049,0.0,14.2,2 
TCOON,ioos:station:TCOON:170:1,2017-01-11T05:30:00Z,27.2970,-97.4049,0.0,14.0,2 
TCOON,ioos:station:TCOON:170:1,2017-01-11T06:30:00Z,27.2970,-97.4049,0.0,14.0,2 
TCOON,ioos:station:TCOON:170:1,2017-01-11T07:30:00Z,27.2970,-97.4049,0.0,14.1,2 
TCOON,ioos:station:TCOON:170:1,2017-01-11T08:30:00Z,27.2970,-97.4049,0.0,13.9,2 
TCOON,ioos:station:TCOON:170:1,2017-01-11T09:30:00Z,27.2970,-97.4049,0.0,13.9,2 
TCOON,ioos:station:TCOON:170:1,2017-01-11T10:30:00Z,27.2970,-97.4049,0.0,13.9,2 
TCOON,ioos:station:TCOON:170:1,2017-01-11T11:30:00Z,27.2970,-97.4049,0.0,13.9,2 
TCOON,ioos:station:TCOON:170:1,2017-01-11T12:30:00Z,27.2970,-97.4049,0.0,13.9,2 
TCOON,ioos:station:TCOON:170:1,2017-01-11T13:30:00Z,27.2970,-97.4049,0.0,13.9,2 
TCOON,ioos:station:TCOON:170:1,2017-01-11T15:30:00Z,27.2970,-97.4049,0.0,14.2,2 
TCOON,ioos:station:TCOON:170:1,2017-01-11T16:30:00Z,27.2970,-97.4049,0.0,14.7,2 
TCOON,ioos:station:TCOON:170:1,2017-01-11T17:30:00Z,27.2970,-97.4049,0.0,15.0,2 
TCOON,ioos:station:TCOON:170:1,2017-01-11T18:30:00Z,27.2970,-97.4049,0.0,16.5,2 
TCOON,ioos:station:TCOON:170:1,2017-01-11T19:30:00Z,27.2970,-97.4049,0.0,17.6,2 
TCOON,ioos:station:TCOON:170:1,2017-01-11T20:30:00Z,27.2970,-97.4049,0.0,18.1,2 
TCOON,ioos:station:TCOON:170:1,2017-01-11T21:30:00Z,27.2970,-97.4049,0.0,18.6,2 
TCOON,ioos:station:TCOON:170:1,2017-01-11T22:30:00Z,27.2970,-97.4049,0.0,18.0,2 
TCOON,ioos:station:TCOON:170:1,2017-01-11T23:30:00Z,27.2970,-97.4049,0.0,17.6,2 
TCOON,ioos:station:TCOON:170:1,2017-01-12T00:30:00Z,27.2970,-97.4049,0.0,17.0,2 
TCOON,ioos:station:TCOON:170:1,2017-01-12T01:30:00Z,27.2970,-97.4049,0.0,16.8,2 
TCOON,ioos:station:TCOON:170:1,2017-01-12T02:30:00Z,27.2970,-97.4049,0.0,16.7,2 
TCOON,ioos:station:TCOON:170:1,2017-01-12T03:30:00Z,27.2970,-97.4049,0.0,16.5,2 
TCOON,ioos:station:TCOON:170:1,2017-01-12T06:30:00Z,27.2970,-97.4049,0.0,16.1,2 
TCOON,ioos:station:TCOON:170:1,2017-01-12T07:30:00Z,27.2970,-97.4049,0.0,16.1,2 
TCOON,ioos:station:TCOON:170:1,2017-01-12T10:30:00Z,27.2970,-97.4049,0.0,15.9,2 
TCOON,ioos:station:TCOON:170:1,2017-01-12T12:30:00Z,27.2970,-97.4049,0.0,15.9,2 
TCOON,ioos:station:TCOON:170:1,2017-01-12T13:30:00Z,27.2970,-97.4049,0.0,15.8,2 
TCOON,ioos:station:TCOON:170:1,2017-01-12T15:30:00Z,27.2970,-97.4049,0.0,16.0,2 
TCOON,ioos:station:TCOON:170:1,2017-01-12T16:30:00Z,27.2970,-97.4049,0.0,16.6,2 
TCOON,ioos:station:TCOON:170:1,2017-01-12T17:30:00Z,27.2970,-97.4049,0.0,17.4,2 
TCOON,ioos:station:TCOON:170:1,2017-01-12T18:30:00Z,27.2970,-97.4049,0.0,17.7,2 
TCOON,ioos:station:TCOON:170:1,2017-01-12T19:30:00Z,27.2970,-97.4049,0.0,18.4,2 
TCOON,ioos:station:TCOON:170:1,2017-01-12T20:30:00Z,27.2970,-97.4049,0.0,18.2,2 
TCOON,ioos:station:TCOON:170:1,2017-01-12T21:30:00Z,27.2970,-97.4049,0.0,18.6,2 
TCOON,ioos:station:TCOON:170:1,2017-01-12T22:30:00Z,27.2970,-97.4049,0.0,18.4,2 
TCOON,ioos:station:TCOON:170:1,2017-01-12T23:30:00Z,27.2970,-97.4049,0.0,18.0,2 
TCOON,ioos:station:TCOON:170:1,2017-01-20T21:30:00Z,27.2970,-97.4049,0.0,20.5,2 
TCOON,ioos:station:TCOON:170:1,2017-01-20T23:30:00Z,27.2970,-97.4049,0.0,20.5,2 
TCOON,ioos:station:TCOON:170:1,2017-01-21T00:30:00Z,27.2970,-97.4049,0.0,20.6,2 
TCOON,ioos:station:TCOON:170:1,2017-01-21T01:30:00Z,27.2970,-97.4049,0.0,20.6,2 
TCOON,ioos:station:TCOON:170:1,2017-01-21T02:30:00Z,27.2970,-97.4049,0.0,20.4,2 
TCOON,ioos:station:TCOON:170:1,2017-01-21T05:30:00Z,27.2970,-97.4049,0.0,20.2,2 
TCOON,ioos:station:TCOON:170:1,2017-01-21T18:30:00Z,27.2970,-97.4049,0.0,21.2,2 
TCOON,ioos:station:TCOON:170:1,2017-01-21T19:30:00Z,27.2970,-97.4049,0.0,21.7,2 
TCOON,ioos:station:TCOON:170:1,2017-01-22T03:30:00Z,27.2970,-97.4049,0.0,21.1,2 
TCOON,ioos:station:TCOON:170:1,2017-01-22T04:30:00Z,27.2970,-97.4049,0.0,21.0,2 
TCOON,ioos:station:TCOON:170:1,2017-01-22T05:30:00Z,27.2970,-97.4049,0.0,20.8,2 
TCOON,ioos:station:TCOON:170:1,2017-01-22T06:30:00Z,27.2970,-97.4049,0.0,20.2,2 
TCOON,ioos:station:TCOON:170:1,2017-01-22T07:30:00Z,27.2970,-97.4049,0.0,19.8,2 
TCOON,ioos:station:TCOON:170:1,2017-01-22T08:30:00Z,27.2970,-97.4049,0.0,19.2,2 
TCOON,ioos:station:TCOON:170:1,2017-01-22T09:30:00Z,27.2970,-97.4049,0.0,19.2,2 
TCOON,ioos:station:TCOON:170:1,2017-01-22T10:30:00Z,27.2970,-97.4049,0.0,18.7,2 
TCOON,ioos:station:TCOON:170:1,2017-01-22T11:30:00Z,27.2970,-97.4049,0.0,18.7,2 
TCOON,ioos:station:TCOON:170:1,2017-01-22T12:30:00Z,27.2970,-97.4049,0.0,18.4,2 
TCOON,ioos:station:TCOON:170:1,2017-01-22T13:30:00Z,27.2970,-97.4049,0.0,18.5,2 
TCOON,ioos:station:TCOON:170:1,2017-01-22T14:30:00Z,27.2970,-97.4049,0.0,18.7,2 
TCOON,ioos:station:TCOON:170:1,2017-01-22T15:30:00Z,27.2970,-97.4049,0.0,18.7,2 
TCOON,ioos:station:TCOON:170:1,2017-01-22T17:30:00Z,27.2970,-97.4049,0.0,17.4,2 
TCOON,ioos:station:TCOON:170:1,2017-01-22T18:30:00Z,27.2970,-97.4049,0.0,17.8,2 
TCOON,ioos:station:TCOON:170:1,2017-01-22T19:30:00Z,27.2970,-97.4049,0.0,18.2,2 
TCOON,ioos:station:TCOON:170:1,2017-01-22T21:30:00Z,27.2970,-97.4049,0.0,18.2,2 
TCOON,ioos:station:TCOON:170:1,2017-01-22T22:30:00Z,27.2970,-97.4049,0.0,18.2,2 
TCOON,ioos:station:TCOON:170:1,2017-01-22T23:30:00Z,27.2970,-97.4049,0.0,18.0,2 
TCOON,ioos:station:TCOON:170:1,2017-01-23T14:30:00Z,27.2970,-97.4049,0.0,15.3,2 
TCOON,ioos:station:TCOON:170:1,2017-01-23T15:30:00Z,27.2970,-97.4049,0.0,15.6,2 
TCOON,ioos:station:TCOON:170:1,2017-01-23T23:30:00Z,27.2970,-97.4049,0.0,18.6,2 
TCOON,ioos:station:TCOON:170:1,2017-01-24T09:30:00Z,27.2970,-97.4049,0.0,17.2,2 
TCOON,ioos:station:TCOON:170:1,2017-01-24T10:30:00Z,27.2970,-97.4049,0.0,16.6,2 
TCOON,ioos:station:TCOON:170:1,2017-01-24T11:30:00Z,27.2970,-97.4049,0.0,16.5,2 
TCOON,ioos:station:TCOON:170:1,2017-01-24T12:30:00Z,27.2970,-97.4049,0.0,16.5,2 
TCOON,ioos:station:TCOON:170:1,2017-01-24T13:30:00Z,27.2970,-97.4049,0.0,16.3,2 
TCOON,ioos:station:TCOON:170:1,2017-01-24T14:30:00Z,27.2970,-97.4049,0.0,16.4,2 
TCOON,ioos:station:TCOON:170:1,2017-01-24T15:30:00Z,27.2970,-97.4049,0.0,16.8,2 
TCOON,ioos:station:TCOON:170:1,2017-01-24T16:30:00Z,27.2970,-97.4049,0.0,17.5,2 
TCOON,ioos:station:TCOON:170:1,2017-01-24T17:30:00Z,27.2970,-97.4049,0.0,18.4,2 
TCOON,ioos:station:TCOON:170:1,2017-01-24T18:30:00Z,27.2970,-97.4049,0.0,19.6,2 
TCOON,ioos:station:TCOON:170:1,2017-01-24T19:30:00Z,27.2970,-97.4049,0.0,21.0,2 
TCOON,ioos:station:TCOON:170:1,2017-01-24T20:30:00Z,27.2970,-97.4049,0.0,21.8,2 
TCOON,ioos:station:TCOON:170:1,2017-01-24T21:30:00Z,27.2970,-97.4049,0.0,22.0,2 
TCOON,ioos:station:TCOON:170:1,2017-01-24T22:30:00Z,27.2970,-97.4049,0.0,21.6,2 
TCOON,ioos:station:TCOON:170:1,2017-01-24T23:30:00Z,27.2970,-97.4049,0.0,21.2,2 
TCOON,ioos:station:TCOON:170:1,2017-01-25T00:30:00Z,27.2970,-97.4049,0.0,20.7,2 
TCOON,ioos:station:TCOON:170:1,2017-01-25T01:30:00Z,27.2970,-97.4049,0.0,20.1,2 
TCOON,ioos:station:TCOON:170:1,2017-01-25T02:30:00Z,27.2970,-97.4049,0.0,19.7,2 
TCOON,ioos:station:TCOON:170:1,2017-01-25T03:30:00Z,27.2970,-97.4049,0.0,19.3,2 
TCOON,ioos:station:TCOON:170:1,2017-01-25T04:30:00Z,27.2970,-97.4049,0.0,19.1,2 
TCOON,ioos:station:TCOON:170:1,2017-01-25T05:30:00Z,27.2970,-97.4049,0.0,18.8,2 
TCOON,ioos:station:TCOON:170:1,2017-01-25T06:30:00Z,27.2970,-97.4049,0.0,18.8,2 
TCOON,ioos:station:TCOON:170:1,2017-01-25T07:30:00Z,27.2970,-97.4049,0.0,18.8,2 
TCOON,ioos:station:TCOON:170:1,2017-01-25T08:30:00Z,27.2970,-97.4049,0.0,18.6,2 
TCOON,ioos:station:TCOON:170:1,2017-01-25T09:30:00Z,27.2970,-97.4049,0.0,18.6,2 
TCOON,ioos:station:TCOON:170:1,2017-01-25T10:30:00Z,27.2970,-97.4049,0.0,18.5,2 
TCOON,ioos:station:TCOON:170:1,2017-01-25T21:30:00Z,27.2970,-97.4049,0.0,20.8,2 
TCOON,ioos:station:TCOON:170:1,2017-01-25T22:30:00Z,27.2970,-97.4049,0.0,20.9,2 
TCOON,ioos:station:TCOON:170:1,2017-01-26T13:30:00Z,27.2970,-97.4049,0.0,15.4,2 
TCOON,ioos:station:TCOON:170:1,2017-01-26T14:30:00Z,27.2970,-97.4049,0.0,15.7,2 
TCOON,ioos:station:TCOON:170:1,2017-01-26T15:30:00Z,27.2970,-97.4049,0.0,15.3,2 
TCOON,ioos:station:TCOON:170:1,2017-01-26T16:30:00Z,27.2970,-97.4049,0.0,15.8,2 
TCOON,ioos:station:TCOON:170:1,2017-01-26T17:30:00Z,27.2970,-97.4049,0.0,16.3,2 
TCOON,ioos:station:TCOON:170:1,2017-01-26T21:30:00Z,27.2970,-97.4049,0.0,18.0,2 
TCOON,ioos:station:TCOON:170:1,2017-01-26T22:30:00Z,27.2970,-97.4049,0.0,18.1,2 
TCOON,ioos:station:TCOON:170:1,2017-01-27T04:30:00Z,27.2970,-97.4049,0.0,16.5,2 
TCOON,ioos:station:TCOON:170:1,2017-01-27T06:30:00Z,27.2970,-97.4049,0.0,16.2,2 
TCOON,ioos:station:TCOON:170:1,2017-01-27T07:30:00Z,27.2970,-97.4049,0.0,15.6,2 
TCOON,ioos:station:TCOON:170:1,2017-01-27T08:30:00Z,27.2970,-97.4049,0.0,15.7,2 
TCOON,ioos:station:TCOON:170:1,2017-01-28T11:30:00Z,27.2970,-97.4049,0.0,13.1,2 
TCOON,ioos:station:TCOON:170:1,2017-01-29T15:30:00Z,27.2970,-97.4049,0.0,9.9,2 
TCOON,ioos:station:TCOON:170:1,2017-01-29T16:30:00Z,27.2970,-97.4049,0.0,10.2,2 
TCOON,ioos:station:TCOON:170:1,2017-01-29T21:30:00Z,27.2970,-97.4049,0.0,14.7,2 
TCOON,ioos:station:TCOON:170:1,2017-01-29T22:30:00Z,27.2970,-97.4049,0.0,14.4,2 
TCOON,ioos:station:TCOON:170:1,2017-01-29T23:30:00Z,27.2970,-97.4049,0.0,14.1,2 
TCOON,ioos:station:TCOON:170:1,2017-01-30T00:30:00Z,27.2970,-97.4049,0.0,14.0,2 
TCOON,ioos:station:TCOON:170:1,2017-01-30T06:30:00Z,27.2970,-97.4049,0.0,14.1,2 
TCOON,ioos:station:TCOON:170:1,2017-01-30T09:30:00Z,27.2970,-97.4049,0.0,13.4,2 
TCOON,ioos:station:TCOON:170:1,2017-01-30T20:30:00Z,27.2970,-97.4049,0.0,15.9,2 